Hourly Weather Bolshie Noviki

Today, 20 June, Sunday

Time Temperature Precipitation Wind Pressure Humidity
00:00 +20°C° 0 mm 2 mps 748 mmHg 88%
01:00 +19°C° 0 mm 2 mps 748 mmHg 90%
02:00 +19°C° 0 mm 2 mps 748 mmHg 91%
03:00 +19°C° 0.1 mm 2 mps 748 mmHg 92%
04:00 +19°C° 0.1 mm 2 mps 748 mmHg 93%
05:00 +19°C° 0.1 mm 2 mps 748 mmHg 93%
06:00 +21°C° 0 mm 2 mps 748 mmHg 88%
07:00 +24°C° 0 mm 3 mps 748 mmHg 83%
08:00 +25°C° 0 mm 3 mps 748 mmHg 78%
09:00 +26°C° 0 mm 4 mps 748 mmHg 72%
10:00 +28°C° 0 mm 4 mps 748 mmHg 66%
11:00 +29°C° 0 mm 5 mps 748 mmHg 61%
12:00 +29°C° 0 mm 4 mps 747 mmHg 58%
13:00 +30°C° 0 mm 4 mps 747 mmHg 56%
14:00 +30°C° 0 mm 4 mps 747 mmHg 54%
15:00 +30°C° 0 mm 4 mps 747 mmHg 57%
16:00 +30°C° 0 mm 4 mps 746 mmHg 60%
17:00 +29°C° 0 mm 4 mps 746 mmHg 63%
18:00 +28°C° 0 mm 3 mps 746 mmHg 69%
19:00 +26°C° 0 mm 3 mps 746 mmHg 75%
20:00 +25°C° 0 mm 3 mps 746 mmHg 81%
21:00 +24°C° 0 mm 3 mps 746 mmHg 84%
22:00 +21°C° 0 mm 3 mps 746 mmHg 87%
23:00 +20°C° 0 mm 3 mps 746 mmHg 90%

Tomorrow, 21 June, Monday

Time Temperature Precipitation Wind Pressure Humidity
00:00 +20°C° 0 mm 3 mps 746 mmHg 92%
01:00 +19°C° 0 mm 2 mps 746 mmHg 93%
02:00 +18°C° 0 mm 2 mps 745 mmHg 95%
03:00 +18°C° 0 mm 2 mps 745 mmHg 95%
04:00 +18°C° 0 mm 2 mps 745 mmHg 94%
05:00 +18°C° 0 mm 2 mps 745 mmHg 94%
06:00 +20°C° 0 mm 3 mps 745 mmHg 88%
07:00 +22°C° 0 mm 3 mps 745 mmHg 82%
08:00 +23°C° 0 mm 4 mps 745 mmHg 76%
09:00 +25°C° 0 mm 4 mps 745 mmHg 69%
10:00 +27°C° 0 mm 4 mps 745 mmHg 62%
11:00 +28°C° 0 mm 5 mps 745 mmHg 56%
12:00 +28°C° 0 mm 5 mps 745 mmHg 54%
13:00 +29°C° 0 mm 5 mps 745 mmHg 52%
14:00 +30°C° 0 mm 5 mps 744 mmHg 50%
15:00 +30°C° 0 mm 5 mps 744 mmHg 53%
16:00 +29°C° 0 mm 4 mps 744 mmHg 56%
17:00 +29°C° 0 mm 4 mps 744 mmHg 59%
18:00 +28°C° 0 mm 4 mps 743 mmHg 66%
19:00 +26°C° 0 mm 3 mps 743 mmHg 73%
20:00 +25°C° 0 mm 3 mps 743 mmHg 81%
21:00 +24°C° 0.2 mm 3 mps 743 mmHg 84%
22:00 +22°C° 0.2 mm 3 mps 743 mmHg 88%
23:00 +21°C° 0.2 mm 3 mps 743 mmHg 91%

Day after tomorrow, 22 June, Tuesday

Time Temperature Precipitation Wind Pressure Humidity
00:00 +21°C° 0 mm 3 mps 743 mmHg 92%
01:00 +20°C° 0 mm 3 mps 743 mmHg 94%
02:00 +20°C° 0 mm 3 mps 743 mmHg 95%
03:00 +20°C° 0 mm 3 mps 743 mmHg 94%
04:00 +20°C° 0 mm 3 mps 743 mmHg 94%
05:00 +20°C° 0 mm 2 mps 743 mmHg 93%
06:00 +21°C° 0 mm 3 mps 743 mmHg 89%
07:00 +24°C° 0 mm 3 mps 744 mmHg 84%
08:00 +25°C° 0 mm 3 mps 744 mmHg 79%
09:00 +26°C° 0.1 mm 4 mps 744 mmHg 74%
10:00 +28°C° 0.1 mm 4 mps 744 mmHg 68%
11:00 +29°C° 0.1 mm 4 mps 744 mmHg 63%
12:00 +30°C° 0 mm 4 mps 744 mmHg 60%
13:00 +30°C° 0 mm 4 mps 744 mmHg 56%
14:00 +31°C° 0 mm 3 mps 744 mmHg 52%
15:00 +31°C° 0 mm 3 mps 744 mmHg 55%
16:00 +31°C° 0 mm 3 mps 744 mmHg 57%
17:00 +31°C° 0 mm 3 mps 744 mmHg 59%
18:00 +29°C° 0 mm 2 mps 744 mmHg 65%
19:00 +28°C° 0 mm 2 mps 744 mmHg 71%
20:00 +27°C° 0 mm 1 mps 744 mmHg 78%
21:00 +26°C° 0.1 mm 2 mps 744 mmHg 79%
22:00 +25°C° 0.1 mm 2 mps 744 mmHg 81%
23:00 +24°C° 0.1 mm 2 mps 744 mmHg 83%

23 June, Wednesday

Time Temperature Precipitation Wind Pressure Humidity
00:00 +24°C° 0 mm 2 mps 744 mmHg 84%
01:00 +23°C° 0 mm 2 mps 744 mmHg 84%
02:00 +23°C° 0 mm 2 mps 744 mmHg 84%
03:00 +21°C° 0 mm 3 mps 744 mmHg 86%
04:00 +21°C° 0 mm 3 mps 744 mmHg 87%
05:00 +20°C° 0 mm 3 mps 744 mmHg 89%
06:00 +22°C° 0 mm 3 mps 745 mmHg 83%
07:00 +24°C° 0 mm 3 mps 745 mmHg 77%
08:00 +26°C° 0 mm 4 mps 745 mmHg 71%
09:00 +27°C° 0 mm 4 mps 745 mmHg 66%
10:00 +28°C° 0 mm 3 mps 746 mmHg 61%
11:00 +30°C° 0 mm 3 mps 746 mmHg 56%
12:00 +30°C° 0 mm 3 mps 746 mmHg 54%
13:00 +31°C° 0 mm 3 mps 746 mmHg 53%
14:00 +31°C° 0 mm 3 mps 745 mmHg 51%
15:00 +31°C° 0 mm 3 mps 745 mmHg 54%
16:00 +31°C° 0 mm 3 mps 745 mmHg 56%
17:00 +31°C° 0 mm 2 mps 745 mmHg 59%
18:00 +30°C° 0 mm 2 mps 745 mmHg 65%
19:00 +29°C° 0 mm 1 mps 745 mmHg 70%
20:00 +27°C° 0 mm 1 mps 745 mmHg 76%
21:00 +26°C° 0 mm 1 mps 745 mmHg 78%
22:00 +25°C° 0 mm 2 mps 746 mmHg 81%
23:00 +24°C° 0 mm 2 mps 746 mmHg 83%

24 June, Thursday

Time Temperature Precipitation Wind Pressure Humidity
00:00 +24°C° 0.1 mm 2 mps 746 mmHg 85%
01:00 +23°C° 0.1 mm 2 mps 746 mmHg 88%
02:00 +23°C° 0.1 mm 2 mps 746 mmHg 90%
03:00 +23°C° 0 mm 2 mps 746 mmHg 90%
04:00 +23°C° 0 mm 2 mps 745 mmHg 91%
05:00 +21°C° 0 mm 2 mps 745 mmHg 91%
06:00 +24°C° 0 mm 2 mps 746 mmHg 86%
07:00 +26°C° 0 mm 3 mps 746 mmHg 80%
08:00 +27°C° 0 mm 3 mps 746 mmHg 74%
09:00 +28°C° 0 mm 3 mps 746 mmHg 69%
10:00 +30°C° 0 mm 3 mps 746 mmHg 64%
11:00 +32°C° 0 mm 4 mps 746 mmHg 59%
12:00 +31°C° 0 mm 3 mps 746 mmHg 57%
13:00 +33°C° 0 mm 3 mps 746 mmHg 55%
14:00 +33°C° 0 mm 3 mps 746 mmHg 53%
15:00 +33°C° 0.1 mm 3 mps 745 mmHg 56%
16:00 +33°C° 0.1 mm 3 mps 745 mmHg 60%
17:00 +31°C° 0.1 mm 2 mps 745 mmHg 63%
18:00 +30°C° 0.2 mm 2 mps 745 mmHg 69%
19:00 +28°C° 0.2 mm 1 mps 745 mmHg 74%
20:00 +27°C° 0.2 mm 1 mps 745 mmHg 79%
21:00 +25°C° 1.2 mm 1 mps 745 mmHg 84%
22:00 +23°C° 1.2 mm 2 mps 745 mmHg 88%
23:00 +20°C° 1.2 mm 3 mps 745 mmHg 92%

25 June, Friday

Time Temperature Precipitation Wind Pressure Humidity
00:00 +20°C° 0.2 mm 2 mps 744 mmHg 91%
01:00 +20°C° 0.2 mm 2 mps 744 mmHg 90%
02:00 +21°C° 0.2 mm 1 mps 744 mmHg 89%
03:00 +21°C° 1.5 mm 1 mps 744 mmHg 92%
04:00 +21°C° 1.5 mm 1 mps 744 mmHg 94%
05:00 +20°C° 1.5 mm 1 mps 744 mmHg 97%
06:00 +21°C° 0.3 mm 1 mps 744 mmHg 95%
07:00 +22°C° 0.3 mm 1 mps 744 mmHg 93%
08:00 +23°C° 0.3 mm 1 mps 744 mmHg 91%
09:00 +23°C° 0.2 mm 1 mps 744 mmHg 91%
10:00 +23°C° 0.2 mm 1 mps 744 mmHg 91%
11:00 +23°C° 0.2 mm 1 mps 744 mmHg 91%
12:00 +24°C° 0.1 mm 1 mps 744 mmHg 86%
13:00 +25°C° 0.1 mm 1 mps 744 mmHg 81%
14:00 +26°C° 0.1 mm 1 mps 744 mmHg 75%
15:00 +26°C° 0.1 mm 1 mps 744 mmHg 73%
16:00 +27°C° 0.1 mm 1 mps 744 mmHg 71%
17:00 +27°C° 0.1 mm 1 mps 744 mmHg 69%
18:00 +26°C° 0.2 mm 1 mps 744 mmHg 75%
19:00 +25°C° 0.2 mm 1 mps 743 mmHg 81%
20:00 +24°C° 0.2 mm 2 mps 743 mmHg 88%
21:00 +23°C° 0 mm 2 mps 743 mmHg 90%
22:00 +21°C° 0 mm 2 mps 743 mmHg 92%
23:00 +20°C° 0 mm 2 mps 743 mmHg 95%
Show more